Weather History for Pampa, TX

Change the Weather History Date:

Wednesday, August 28, 2013

  Actual Average Record
Temperature  
Mean Temperature 78 °F -  
Max Temperature 93 °F 86 °F 104 °F (2011)
Min Temperature 64 °F 62 °F 51 °F (1992)
Cooling Degree Days 13    
Growing Degree Days 28 (Base 50)    
Moisture  
Dew Point 58 °F    
Average Humidity 54    
Maximum Humidity 91    
Minimum Humidity 27    
Precipitation  
Precipitation 0.00 in - - ()
Sea Level Pressure  
Sea Level Pressure 30.11 in    
Wind  
Wind Speed 12 mph (SSW)    
Max Wind Speed 17 mph    
Max Gust Speed 23 mph    
Visibility 10 miles    
Events      
Averages and records for this station are not official NWS values.
T = Trace of Precipitation, MM = Missing Value Source: NWS Daily Summary

Daily Weather History Graph

Daily Weather History Graph

Search for Another Location

Airport:

Trip Planner

Search our weather history database for the weather conditions in past years. The results will help you decide how hot, cold, wet, or windy it might be!

Date:

Astronomy

Aug. 28, 2013 Rise Set
Actual Time 7:13 AM CDT 8:16 PM CDT
Civil Twilight 6:47 AM CDT 8:42 PM CDT
Nautical Twilight 6:15 AM CDT 9:13 PM CDT
Astronomical Twilight 5:43 AM CDT 9:45 PM CDT
Moon 12:27 AM CDT (8/28) 2:49 PM CDT (8/28)
Length of Visible Light 13h 55m
Length of Day
13h 02m
Waning Gibbous, 47% of the Moon is Illuminated
Aug 28
Waning Gibbous
Sep 5
New
Sep 12
First Quarter
Sep 19
Full
Sep 26
Last Quarter

Hourly Weather History & Observations

Time (CDT) Temp. Heat Index Dew Point Humidity Pressure Visibility Wind Dir Wind Speed Gust Speed Precip Events Conditions
12:15 AM 73.0 °F - 60.1 °F 64% 30.12 in 10.0 mi SSE 15.0 mph - N/A   Clear
12:35 AM 72.1 °F - 60.4 °F 67% 30.12 in 10.0 mi SSE 12.7 mph - N/A   Clear
12:55 AM 71.6 °F - 61.2 °F 70% 30.12 in 10.0 mi SSE 12.7 mph - N/A   Clear
1:15 AM 71.2 °F - 61.7 °F 72% 30.12 in 10.0 mi SSE 12.7 mph 17.3 mph N/A   Clear
1:35 AM 71.2 °F - 62.1 °F 73% 30.12 in 10.0 mi South 12.7 mph - N/A   Clear
1:55 AM 71.4 °F - 62.2 °F 73% 30.11 in 10.0 mi South 12.7 mph - N/A   Clear
2:15 AM 71.1 °F - 62.6 °F 75% 30.12 in 10.0 mi South 11.5 mph - N/A   Clear
2:35 AM 70.2 °F - 62.6 °F 77% 30.11 in 10.0 mi South 10.4 mph - N/A   Clear
2:55 AM 69.8 °F - 62.6 °F 78% 30.11 in 10.0 mi South 9.2 mph - N/A   Clear
3:15 AM 69.1 °F - 62.6 °F 80% 30.11 in 10.0 mi South 9.2 mph - N/A   Clear
3:35 AM 68.9 °F - 62.6 °F 80% 30.11 in 10.0 mi South 9.2 mph - N/A   Clear
3:55 AM 68.4 °F - 62.6 °F 82% 30.11 in 10.0 mi South 8.1 mph - N/A   Clear
4:15 AM 68.0 °F - 62.6 °F 83% 30.11 in 10.0 mi South 6.9 mph - N/A   Clear
4:35 AM 67.5 °F - 62.6 °F 84% 30.10 in 10.0 mi South 6.9 mph - N/A   Clear
4:55 AM 67.1 °F - 62.6 °F 85% 30.10 in 10.0 mi South 6.9 mph - N/A   Clear
5:15 AM 66.6 °F - 62.6 °F 87% 30.11 in 10.0 mi South 6.9 mph - N/A   Clear
5:35 AM 65.8 °F - 62.2 °F 88% 30.11 in 10.0 mi South 6.9 mph - N/A   Clear
5:55 AM 65.5 °F - 62.2 °F 89% 30.10 in 10.0 mi South 6.9 mph - N/A   Clear
6:15 AM 65.3 °F - 62.1 °F 89% 30.10 in 10.0 mi South 5.8 mph - N/A   Clear
6:35 AM 64.8 °F - 62.1 °F 91% 30.11 in 10.0 mi South 6.9 mph - N/A   Clear
6:55 AM 64.9 °F - 62.1 °F 90% 30.11 in 10.0 mi SSW 6.9 mph - N/A   Clear
7:15 AM 65.3 °F - 62.1 °F 89% 30.11 in 10.0 mi SSW 5.8 mph - N/A   Clear
7:35 AM 65.5 °F - 61.7 °F 88% 30.12 in 10.0 mi SSW 6.9 mph - N/A   Clear
7:55 AM 67.3 °F - 61.3 °F 81% 30.12 in 10.0 mi SW 8.1 mph - N/A   Clear
8:15 AM 69.8 °F - 61.2 °F 74% 30.12 in 10.0 mi SW 9.2 mph - N/A   Clear
8:35 AM 71.8 °F - 61.2 °F 69% 30.12 in 10.0 mi SW 13.8 mph 18.4 mph N/A   Clear
8:55 AM 73.9 °F - 61.7 °F 65% 30.13 in 10.0 mi WSW 12.7 mph 19.6 mph N/A   Clear
9:15 AM 76.1 °F - 61.7 °F 61% 30.13 in 10.0 mi SW 16.1 mph - N/A   Clear
9:35 AM 77.4 °F - 61.7 °F 58% 30.13 in 10.0 mi WSW 15.0 mph - N/A   Clear
9:55 AM 79.5 °F - 61.3 °F 54% 30.14 in 10.0 mi WSW 13.8 mph - N/A   Clear
10:15 AM 81.5 °F 82.0 °F 60.1 °F 48% 30.14 in 10.0 mi SW 16.1 mph 20.7 mph N/A   Clear
10:35 AM 82.4 °F 82.6 °F 59.9 °F 46% 30.14 in 10.0 mi SW 16.1 mph - N/A   Clear
10:55 AM 83.3 °F 83.4 °F 59.9 °F 45% 30.14 in 10.0 mi WSW 15.0 mph 19.6 mph N/A   Clear
11:15 AM 84.4 °F 84.2 °F 59.9 °F 43% 30.14 in 10.0 mi SW 13.8 mph 18.4 mph N/A   Clear
11:35 AM 85.8 °F 85.0 °F 58.5 °F 39% 30.14 in 10.0 mi SW 16.1 mph 23.0 mph N/A   Clear
11:55 AM 86.7 °F 85.6 °F 57.7 °F 37% 30.14 in 10.0 mi WSW 16.1 mph 21.9 mph N/A   Clear
12:15 PM 87.3 °F 85.7 °F 55.9 °F 34% 30.14 in 10.0 mi SSW 12.7 mph 20.7 mph N/A   Clear
12:35 PM 88.0 °F 86.3 °F 55.2 °F 33% 30.14 in 10.0 mi WSW 12.7 mph 19.6 mph N/A   Clear
12:55 PM 88.9 °F 86.9 °F 54.7 °F 31% 30.14 in 10.0 mi SW 10.4 mph 19.6 mph N/A   Clear
1:15 PM 90.3 °F 88.1 °F 54.3 °F 29% 30.13 in 10.0 mi SSW 11.5 mph 23.0 mph N/A   Scattered Clouds
1:35 PM 90.7 °F 88.3 °F 53.8 °F 28% 30.13 in 10.0 mi SSW 10.4 mph 18.4 mph N/A   Scattered Clouds
1:55 PM 88.9 °F 86.5 °F 53.1 °F 29% 30.13 in 10.0 mi WSW 9.2 mph 18.4 mph N/A   Scattered Clouds
2:15 PM 91.4 °F 89.1 °F 53.6 °F 28% 30.12 in 10.0 mi SSW 10.4 mph 18.4 mph N/A   Scattered Clouds
2:35 PM 91.0 °F 88.7 °F 54.0 °F 28% 30.12 in 10.0 mi SSW 15.0 mph 19.6 mph N/A   Scattered Clouds
2:55 PM 91.0 °F 88.7 °F 53.6 °F 28% 30.12 in 10.0 mi South 10.4 mph 18.4 mph N/A   Scattered Clouds
3:15 PM 91.8 °F 89.5 °F 54.3 °F 28% 30.10 in 10.0 mi South 12.7 mph 18.4 mph N/A   Scattered Clouds
3:35 PM 91.0 °F 88.7 °F 54.0 °F 28% 30.10 in 10.0 mi SW 12.7 mph - N/A   Scattered Clouds
3:55 PM 90.1 °F 87.9 °F 53.6 °F 29% 30.10 in 10.0 mi SSW 13.8 mph - N/A   Scattered Clouds
4:15 PM 91.2 °F 89.1 °F 54.7 °F 29% 30.10 in 10.0 mi South 16.1 mph 21.9 mph N/A   Clear
4:35 PM 91.9 °F 89.5 °F 53.8 °F 27% 30.09 in 10.0 mi SSW 12.7 mph 18.4 mph N/A   Clear
4:55 PM 92.5 °F 90.4 °F 54.5 °F 28% 30.09 in 10.0 mi SSW 15.0 mph 20.7 mph N/A   Scattered Clouds
5:15 PM 92.1 °F 90.0 °F 54.7 °F 28% 30.08 in 10.0 mi South 9.2 mph - N/A   Scattered Clouds
5:35 PM 90.9 °F 88.7 °F 54.9 °F 29% 30.08 in 10.0 mi South 15.0 mph 18.4 mph N/A   Scattered Clouds
5:55 PM 90.9 °F 88.7 °F 54.5 °F 29% 30.08 in 10.0 mi SSW 13.8 mph 19.6 mph N/A   Scattered Clouds
6:15 PM 90.0 °F 87.9 °F 54.9 °F 30% 30.08 in 10.0 mi South 11.5 mph 20.7 mph N/A   Scattered Clouds
6:35 PM 89.8 °F 87.9 °F 55.4 °F 31% 30.08 in 10.0 mi SSW 17.3 mph 20.7 mph N/A   Scattered Clouds
6:55 PM 88.3 °F 86.3 °F 54.5 °F 31% 30.08 in 10.0 mi SSW 15.0 mph - N/A   Clear
7:15 PM 87.8 °F 85.9 °F 54.3 °F 32% 30.08 in 10.0 mi SSW 13.8 mph - N/A   Clear
7:35 PM 86.0 °F 84.2 °F 53.4 °F 33% 30.08 in 10.0 mi SSW 15.0 mph 20.7 mph N/A   Clear
7:55 PM 84.4 °F 83.2 °F 55.8 °F 37% 30.09 in 10.0 mi SSW 11.5 mph 19.6 mph N/A   Clear
8:15 PM 82.8 °F 82.1 °F 56.3 °F 40% 30.10 in 10.0 mi South 10.4 mph - N/A   Clear
8:35 PM 81.1 °F 81.1 °F 56.7 °F 43% 30.10 in 10.0 mi South 8.1 mph - N/A   Clear
8:55 PM 79.5 °F - 57.2 °F 46% 30.11 in 10.0 mi South 8.1 mph - N/A   Clear
9:15 PM 78.8 °F - 57.2 °F 47% 30.12 in 10.0 mi South 9.2 mph - N/A   Clear
9:35 PM 78.4 °F - 57.0 °F 48% 30.12 in 10.0 mi South 9.2 mph - N/A   Clear
9:55 PM 77.4 °F - 56.7 °F 49% 30.12 in 10.0 mi SSW 9.2 mph - N/A   Clear
10:15 PM 77.0 °F - 56.3 °F 49% 30.13 in 10.0 mi SSW 9.2 mph - N/A   Clear
10:35 PM 77.0 °F - 55.8 °F 48% 30.13 in 10.0 mi SSW 10.4 mph - N/A   Clear
10:55 PM 77.0 °F - 55.6 °F 47% 30.13 in 10.0 mi SSW 9.2 mph - N/A   Clear
11:15 PM 76.3 °F - 55.0 °F 48% 30.13 in 10.0 mi South 9.2 mph - N/A   Clear
11:35 PM 76.1 °F - 55.4 °F 49% 30.13 in 10.0 mi SSW 11.5 mph - N/A   Clear
11:55 PM 75.7 °F - 54.9 °F 48% 30.13 in 10.0 mi SSW 11.5 mph - N/A   Clear